Other Public Products
Issued by NWS Grand Forks, ND

Home | Current Version | Previous Version | Graphics & Text | Print | Product List | Glossary On
Versions: 1 2 3 4 5 6 7 8 9 10 11 12 13 14 15 16 17 18 19 20 21 22 23 24 25 26 27 28 29 30 31 32 33 34 35 36 37 38 39 40 41 42 43 44 45 46 47 48 49 50
000
FPUS83 KFGF 210131
OPUFGF
PRAIRIE TO PINES WEATHER ROUNDUP
NATIONAL WEATHER SERVICE EASTERN NORTH DAKOTA/GRAND FORKS ND
800 PM CDT WED AUG 20 2014

 **SATELLITE DATA USED TO AUGMENT SKY COVER AT AUTOMATED STATIONS**
 *****  WEATHER ACROSS EASTERN NORTH DAKOTA  *****

CITY           SKY/WX    TMP DP  RH WIND       PRES   REMARKS
GRAND FORKS    MOCLDY    78  68  71 SE6       29.77S
GRAND FORKS AF MOCLDY    77  70  78 SE7       29.79R
GRAND CITY NWS   N/A     72 N/A N/A SE7         N/A
BUXTON           N/A     77  74  89 E3          N/A
DEVILS LAKE    CLOUDY    75  66  73 SE13      29.74F
FARGO          MOCLDY    78  68  71 E8        29.77R
WAHPETON ARPT  PTCLDY    73  64  73 E8        29.78S
$$

 *****  WEATHER ACROSS CENTRAL AND WESTERN NORTH DAKOTA  *****

CITY           SKY/WX    TMP DP  RH WIND       PRES   REMARKS
JAMESTOWN      CLOUDY    76  68  76 E9        29.76R
BISMARCK       LGT RAIN  69  66  90 NW12      29.74R
MINOT          CLOUDY    68  64  87 E9        29.73S
MINOT AFB      CLOUDY    70  69  96 E8        29.74R
GARRISON         N/A     70  68  93 N3        29.73S
WILLISTON      MOCLDY    72  62  71 SE3       29.74S
DICKINSON      MOCLDY    71  63  75 N7        29.75S
HETTINGER      PTCLDY    65  62  90 N9        29.77S
$$

 *****  OTHER OBSERVATIONS NORTHEAST NORTH DAKOTA  *****

CITY           SKY/WX    TMP DP  RH WIND       PRES   REMARKS
WALHALLA         N/A     73  70  88 S3        29.75F
LANGDON        FAIR      73  66  78 SE10      29.77F
CAVALIER       FAIR      77  68  73 SE7       29.76F
GRAFTON        FAIR      75  70  83 SE5       29.77F
CANDO          FAIR      73  68  83 SE9       29.76F
FORT TOTTEN      N/A     76  67  73 E7        29.95S
ROLLA          FAIR      72  72 100 SE13      29.76F
RUGBY          FAIR      75  66  73 SE10      29.74R
 ***** THE ABOVE OBSERVATIONS ARE NON NWS ARE NOT QUALITY
        CONTROLLED AND MAY MIS-REPORT RAIN FOR SNOW...
$$

 *****  OTHER OBSERVATIONS SOUTHEAST NORTH DAKOTA *****

CITY           SKY/WX    TMP DP  RH WIND       PRES   REMARKS
COOPERSTOWN    NOT AVBL
VALLEY CITY    FAIR      75  72  88 SE9       29.78R
OAKES          NOT AVBL
GWINNER        CLEAR     75  70  83 E9        29.77R
SHEYENNE NWR     N/A     76  69  79 SE7       29.95S
BUFFALO          N/A     75  64  67 E8          N/A
WYNDMERE       NOT AVBL
 ***** THE ABOVE OBSERVATIONS ARE NON NWS ARE NOT QUALITY
       CONTROLLED AND MAY MIS-REPORT RAIN FOR SNOW...
$$

  *****  WEATHER ACROSS NORTHERN MINNESOTA  *****

CITY           SKY/WX    TMP DP  RH WIND       PRES   REMARKS
FLAG ISLAND    CLEAR     73  64  73 SE7       29.84R
WARROAD        CLEAR     72  66  83 SE9       29.84S
ROSEAU         PTCLDY    73  64  73 SE7       29.83R
HALLOCK        PTCLDY    75  66  73 SE8       29.78S
THF RVR FALLS  PTCLDY    73  64  73 E8        29.82S
HALSTAD          N/A     74  68  82 SE6         N/A
FOSSTON        PTCLDY    70  59  68 CALM      29.84S
BAUDETTE       PTCLDY    72  61  68 SE6       29.85F
WASKISH        CLEAR     70  63  78 CALM      29.87S
CROOKSTON      PTCLDY    73  68  83 SE7       29.80S
$$
  *****  WEATHER ACROSS CENTRAL AND WEST MINNESOTA  *****

CITY           SKY/WX    TMP DP  RH WIND       PRES   REMARKS
BEMIDJI        MOCLDY    71  63  74 SE8       29.87S
PARK RAPIDS    MOCLDY    74  65  73 SE7       29.85S
WADENA         MOCLDY    72  64  78 E6        29.84S
DETROIT LAKES  CLOUDY    75  64  69 E6        29.85R
MOORHEAD       MOCLDY    75  72  88 E5        29.79S
FERGUS FALLS   MOCLDY    75  64  69 E6        29.80R
ELBOW LAKE     FAIR      75  67  76 SE7       29.81R
MORRIS MN      PTCLDY    75  66  73 SE8       29.79S
STAPLES        MOCLDY    72  64  78 E6        29.86R
WHEATON        PTCLDY    72  66  83 E7        29.80R
$$
  *****  WEATHER ELSEWHERE ACROSS MINNESOTA  *****

CITY           SKY/WX    TMP DP  RH WIND       PRES   REMARKS
DULUTH         MOCLDY    65  56  72 E7        29.92S
INTRNTL FALLS  PTCLDY    68  60  75 E5        29.88S
ELY            CLOUDY    66  61  82 SE6       29.93R
CLOQUET        CLEAR     64  57  77 E5        29.91S
BRAINERD       PTCLDY    69  63  81 CALM      29.87R
HIBBING        PTCLDY    68  61  78 SE5       29.90F
ALEXANDRIA     MOCLDY    76  66  71 SE9       29.84R
SAINT CLOUD    MOCLDY    76  66  71 E7        29.84S
MINNEAPOLIS    MOCLDY    78  66  66 E10       29.85R
$$

  *****  WEATHER ACROSS SOUTH DAKOTA  *****

CITY           SKY/WX    TMP DP  RH WIND       PRES   REMARKS
SIOUX FALLS    CLOUDY    73  69  87 E8        29.77S
BROOKINGS      NOT AVBL
WATERTOWN      CLOUDY    75  68  78 SE7       29.77S
HURON          MOCLDY    77  68  73 S10       29.70S
SISSETON         N/A     76  68  76 SE9       29.76R
ABERDEEN       CLOUDY    76  68  76 SE10      29.71F
MITCHELL       MOCLDY    79  72  79 SE9       29.71F
PIERRE         CLEAR     83  72  69 E14       29.63S
MOBRIDGE       MOCLDY    77  69  76 E15       29.65S
RAPID CITY     CLEAR     80  56  43 N14       29.76R
$$

  *****  SOME WEATHER IN NEARBY STATES *****

CITY           SKY/WX    TMP DP  RH WIND       PRES   REMARKS
GLASGOW MT     SUNNY     79  54  41 W6        29.75S
GREAT FALLS MT CLOUDY    70  49  47 S10       29.85R
CHEYENNE WY    MOCLDY    72  47  40 W9        30.02R
SCOTTSBLUFF NE PTCLDY    86  53  32 W7        29.82R
OMAHA NE       PTCLDY    86  73  65 SE18      29.76F HX  93
DES MOINES IA  PTCLDY    80  73  79 S7        29.82S
DAVENPORT IA   MOCLDY    72  68  87 NE6       29.90S
CHICAGO IL     MOCLDY    80  64  58 W6        29.88S
EAU CLAIRE WI  MOCLDY    72  64  76 E3        29.89R
LA CROSSE WI   PTCLDY    79  68  69 E5        29.86S
$$

  *****  SOME NATIONAL WEATHER *****

CITY           SKY/WX    TMP DP  RH WIND       PRES   REMARKS
LA GUARDIA NY  PTCLDY    73  60  63 S12       30.01R
RALEIGH NC     PTCLDY    75  66  73 CALM      29.99R
ATLANTA GA     CLOUDY    76  69  79 W6        30.11R
NEW ORLEANS LA CLOUDY    80  74  81 CALM      30.06R
OKLAHOMA CITY  CLEAR     90  62  39 S15G24    29.86R HX  90
ALBUQUERQUE NM PTCLDY    84  44  24 SW10      30.02F
SALT LAKE CITY PTSUNNY   78  45  30 S8        29.90S
LOS ANGELES CA MOSUNNY   73  62  68 W14       29.89S
BOISE ID       PTSUNNY   84  45  25 N6        29.79S
SEATTLE WA     MOSUNNY   70  53  54 SW9       29.99S
$$

*** WEATHER ACROSS MANITOBA...SASKATCHEWAN AND ONTARIO ***
                ***ONTARIO***

CITY           SKY/WX    TMP DP  RH WIND       PRES   REMARKS
GERALDTON      CLOUDY    64  61  88 E2        29.96S
THUNDER BAY    CLOUDY    64  61  88 S5        29.94R
SIOUX LOOKOUT  PTCLDY    70  59  68 SE2       29.90S
TORONTO        LGT RAIN  68  64  88 E6        29.90R
BIG TROUT LK   CLEAR     73  54  49 SE7       29.91R
PICKLE LAKE    PTCLDY    72  55  56 SE12      29.92R
DRYDEN         CLEAR     73  59  60 SE3       29.89S
KENORA         MOCLDY    72  59  64 S6        29.88F
$$
                *** MANITOBA***

CITY           SKY/WX    TMP DP  RH WIND       PRES   REMARKS
BRANDON        CLOUDY    70  66  88 NE10      29.75R
DAUPHIN        PTCLDY    75  66  73 W8        29.70S
ISLAND LAKE    PTCLDY    79  59  50 S5        29.78S
PILOT MOUND      N/A     70  66  88 SE13        N/A
THE PAS        CLOUDY    70  66  88 NW7       29.65S
THOMPSON       MOCLDY    77  63  61 SE5       29.67S
WINNIPEG       MOCLDY    77  66  69 S13       29.77R
LYNN LAKE      LGT RAIN  55  54  94 MISG      29.74R FOG
CHURCHILL      MOCLDY    48  48 100 NE12      29.82F
GILLAM         PTCLDY    79  59  50 S6        29.73F
$$
                ***SASKATCHEWAN***

CITY           SKY/WX    TMP DP  RH WIND       PRES   REMARKS
ESTEVAN        LGT RAIN  68  66  94 CALM      29.75S
KINDERSLEY     PTSUNNY   68  52  56 N12       29.85R
LLOYDMINSTER   PTSUNNY   63  54  72 NW8       29.89R
PRINCE ALBERT  MOSUNNY   64  61  88 NE6       29.79R
REGINA         MOCLDY    70  64  83 NW3       29.75S


USA.gov is the U.S. government's official web portal to all federal, state and local government web resources and services.